Flag for Germany Weather past 2 weeks in Öhringen, Baden-Württemberg, Germany

Now
53 °F

Fog.


Feels Like: 53 °F
Forecast: 47 / 67 °F
Wind: 1 mph from Northeast

Location: Oehringen

Current Time: Oct 2, 2014 at 2:47:35 AM

Latest Report: Oct 2, 2014 at 2:00 AM


Visibility: 3 mi

Pressure: 30.37 "Hg

Humidity: 97%

Dew point: 53 °F

Location of ÖhringenLocation

Historic Weather in Öhringen — Graph

°F

Öhringen temperature yesterday

Maximum temperature yesterday: 70 °F (at 3:00 PM)
Minimum temperature yesterday: 54 °F (at 7:00 AM)
Average temperature yesterday: 60 °F

Past Weeks' High & Low Weather Summary

 TemperatureHumidityPressure
High76 °F (Sep 18, 4:00 PM)99% (Oct 1, 9:00 AM)30.37 "Hg (Oct 1, 9:00 AM)
Low42 °F (Sep 24, 7:00 AM)49% (Sep 23, 3:00 PM)29.84 "Hg (Sep 18, 4:00 PM)
Average59 °F83%30.12 "Hg
* Reported Sep 17 2:00 AM — Oct 2 2:00 AM, Öhringen, Weather by CustomWeather, © 2014

Note: Actual official high and low records may vary slightly from our data, if they occured in-between our weather recording intervals... More about our weather records

Advertising

Öhringen weather history for previous 24 hours

 ConditionsComfort  
Time TempWeatherWind HumidityBarometerVisibility
2:00 AM
Oct 2
53 °FFog.1 mph97%30.37 "Hg3 mi
1:00 AM55 °FFog.1 mph98%30.37 "Hg3 mi
12:00 AM55 °FFog.1 mph96%30.37 "Hg3 mi
11:00 PM
Oct 1
57 °FClear.1 mph95%30.36 "Hg5 mi
10:00 PM58 °FClear.1 mph94%30.35 "Hg7 mi
9:00 PM60 °FPassing clouds.1 mph90%30.34 "Hg8 mi
8:00 PM63 °FOvercast.1 mph83%30.32 "Hg12 mi
7:00 PM65 °FOvercast.1 mph74%30.30 "Hg17 mi
6:00 PM66 °FOvercast.1 mph75%30.29 "Hg14 mi
5:00 PM67 °FOvercast.2 mph71%30.29 "Hg18 mi
4:00 PM68 °FOvercast.2 mph71%30.29 "Hg10 mi
3:00 PM70 °FPartly sunny.3 mph60%30.29 "Hg14 mi
2:00 PM67 °FSunny.3 mph70%30.30 "Hg9 mi
1:00 PM65 °FPassing clouds.1 mph77%30.32 "Hg3 mi
12:00 PM61 °FLow clouds.1 mph89%30.34 "Hg2 mi
11:00 AM58 °FLow clouds.1 mph97%30.34 "Hg0 mi
10:00 AM56 °FLow clouds.1 mph98%30.33 "Hg0 mi
9:00 AM56 °FLow clouds.1 mph99%30.33 "Hg0 mi
8:00 AM55 °FLow clouds.1 mph98%30.32 "Hg1 mi
7:00 AM54 °FFog.1 mph97%30.32 "Hg2 mi
6:00 AM54 °FFog.1 mph97%30.31 "Hg2 mi
5:00 AM54 °FFog.1 mph97%30.32 "Hg2 mi
4:00 AM54 °FFog.1 mph97%30.32 "Hg2 mi
3:00 AM55 °FFog.No wind97%30.32 "Hg3 mi
2:00 AM56 °FFog.1 mph97%30.32 "Hg2 mi
Weather by CustomWeather, © 2014

See weather overviewHow to use our weather pages